Stations météo

réclame
Mon MeteoGroup
Gourette, France (7775): Température de l'air & dewpoint: 14.11.2017 12:00:00 - 20.11.2017 12:00:00 (CET)Gourette, France (7775): Vitesse du vent & gusts: 14.11.2017 12:00:00 - 20.11.2017 12:00:00 (CET)Gourette, France (7775): Direction du vent: 14.11.2017 12:00:00 - 20.11.2017 12:00:00 (CET)Gourette, France (7775): reduced air pressure: 14.11.2017 12:00:00 - 20.11.2017 12:00:00 (CET)Gourette, France (7775): visibility: 14.11.2017 12:00:00 - 20.11.2017 12:00:00 (CET)Gourette, France (7775): Quantités de précipitations: 14.11.2017 12:00:00 - 20.11.2017 12:00:00 (CET)
Date & Time tt [°C] td [°C] ff [km/h] ff [knt] fx [km/h] fx [knt] dd ppp [hPa] vv [km] rr [mm]
20.11.2017 12:00:00 17,5 7,0 16 9 32 17 S 1020,0 - 0,0
20.11.2017 11:00:00 16,9 6,7 17 9 26 14 S 1020,6 - 0,0
20.11.2017 10:00:00 16,7 6,8 13 7 22 12 SSW 1020,5 20 0,0
20.11.2017 09:00:00 14,4 9,0 13 7 16 9 SW 1020,0 - 0,0
20.11.2017 08:00:00 12,4 6,4 8 4 9 5 SW 1019,6 - 0,0
20.11.2017 07:00:00 12,4 5,3 5 3 9 5 W 1019,2 - 0,0
20.11.2017 06:00:00 12,5 3,2 9 5 16 9 NNW 1018,8 - 0,0
20.11.2017 05:00:00 11,6 1,5 13 7 16 9 N 1018,3 - 0,0
20.11.2017 04:00:00 12,0 1,6 8 5 14 8 SSW 1017,8 - 0,0
20.11.2017 03:00:00 11,3 1,8 13 7 16 9 SSW 1017,5 - 0,0
20.11.2017 02:00:00 12,2 1,8 11 6 14 7 SW 1017,3 - 0,0
20.11.2017 01:00:00 12,7 6,5 4 2 9 5 WSW 1017,1 - 0,0
20.11.2017 00:00:00 13,4 4,5 3 2 6 3 W 1017,0 - 0,0
19.11.2017 23:00:00 12,9 1,8 3 2 6 3 SSE 1016,5 - 0,0
19.11.2017 22:00:00 12,9 0,9 4 2 5 3 SSW 1016,0 - 0,0
19.11.2017 21:00:00 13,6 0,2 4 2 12 7 SW 1015,2 - 0,0
19.11.2017 20:00:00 14,2 1,1 9 5 14 7 NW 1015,0 - 0,0
19.11.2017 19:00:00 14,0 2,5 11 6 19 10 NW 1014,4 18 0,0
19.11.2017 18:00:00 12,1 7,4 17 9 21 11 NNW 1013,9 - 0,0
19.11.2017 17:00:00 13,0 9,1 12 7 17 9 N 1013,2 - 0,0
19.11.2017 16:00:00 15,5 9,4 10 5 14 8 NE 1012,5 - 0,0
19.11.2017 15:00:00 16,0 8,7 9 5 16 9 E 1012,5 - 0,0
19.11.2017 14:00:00 17,4 9,3 8 4 15 8 SE 1012,6 - 0,0
19.11.2017 13:00:00 16,9 9,1 8 4 21 11 SE 1013,4 - 0,0
19.11.2017 12:00:00 16,5 8,7 15 8 22 12 SE 1013,8 - 0,0
19.11.2017 11:00:00 16,6 8,8 17 9 27 15 SSW 1014,4 - 0,0
19.11.2017 10:00:00 15,2 7,0 15 8 23 12 SSW 1014,6 25 0,0
19.11.2017 09:00:00 12,6 5,5 15 8 23 12 SW 1015,2 - 0,0
19.11.2017 08:00:00 10,7 3,9 18 10 21 12 SW 1015,3 - 0,0
19.11.2017 07:00:00 10,3 3,3 18 10 23 12 SW 1014,9 20 0,0
19.11.2017 06:00:00 10,8 3,3 14 7 23 12 SW 1015,0 - 0,0
19.11.2017 05:00:00 11,2 3,5 14 7 16 8 WSW 1015,5 - 0,0
19.11.2017 04:00:00 11,9 3,1 9 5 11 6 W 1016,0 15 0,0
19.11.2017 03:00:00 12,4 2,5 9 5 11 6 W 1016,0 - 0,0
19.11.2017 02:00:00 12,3 2,4 9 5 12 7 WSW 1016,0 - 0,0
19.11.2017 01:00:00 12,3 2,2 8 5 10 6 WSW 1016,6 - 0,0
19.11.2017 00:00:00 12,7 2,0 9 5 11 6 W 1017,1 - 0,0
18.11.2017 23:00:00 13,4 1,7 10 5 16 9 NW 1017,1 - 0,0
18.11.2017 22:00:00 13,2 2,1 11 6 14 8 NW 1017,2 - 0,0
18.11.2017 21:00:00 9,9 2,0 10 6 19 10 NW 1017,1 - 0,0
18.11.2017 20:00:00 11,8 2,0 14 8 22 12 NW 1016,9 - 0,0
18.11.2017 19:00:00 11,7 2,7 19 10 26 14 NNW 1016,6 - 0,0
18.11.2017 18:00:00 12,5 4,2 20 11 27 15 N 1016,4 - 0,0
18.11.2017 17:00:00 12,8 7,2 18 10 30 16 N 1016,0 - 0,0
18.11.2017 16:00:00 15,3 7,3 21 12 36 20 NNE 1015,8 18 0,0
18.11.2017 15:00:00 16,9 8,1 24 13 45 24 NNE 1015,7 - 0,0
18.11.2017 14:00:00 17,9 7,0 28 15 44 24 NNE 1015,4 - 0,0
18.11.2017 13:00:00 17,7 8,0 30 16 44 24 NNE 1015,8 - 0,0
18.11.2017 12:00:00 17,5 7,5 27 15 48 26 NNE 1016,5 - 0,0
18.11.2017 11:00:00 17,0 7,3 33 18 44 24 NNE 1016,9 - 0,0
18.11.2017 10:00:00 15,7 7,2 23 12 39 21 N 1016,7 20 0,0
18.11.2017 09:00:00 14,2 7,9 18 10 32 17 N 1016,6 - 0,0
18.11.2017 08:00:00 11,7 6,4 18 10 27 14 NNW 1016,2 - 0,0
18.11.2017 07:00:00 10,7 6,8 19 10 26 14 N 1015,8 20 0,0
18.11.2017 06:00:00 10,4 6,5 18 10 26 14 N 1015,5 - 0,0
18.11.2017 05:00:00 10,6 6,9 17 9 29 16 N 1015,6 - 0,0
18.11.2017 04:00:00 10,5 7,0 20 11 28 15 N 1015,5 20 0,0
18.11.2017 03:00:00 10,8 6,5 21 11 30 16 N 1015,7 - 0,0
18.11.2017 02:00:00 11,3 6,6 20 11 29 16 N 1015,7 - 0,0
18.11.2017 01:00:00 11,7 5,8 21 12 34 18 N 1015,9 - 0,0
18.11.2017 00:00:00 12,6 5,5 19 11 32 17 N 1015,9 - 0,0
17.11.2017 23:00:00 12,9 5,6 24 13 32 18 NNW 1015,8 - 0,0
17.11.2017 22:00:00 12,1 5,7 23 12 29 16 N 1015,8 - 0,0
17.11.2017 21:00:00 12,5 5,6 18 10 28 15 NNW 1015,8 - 0,0
17.11.2017 20:00:00 12,8 5,5 20 11 27 15 N 1015,4 - 0,0
17.11.2017 19:00:00 12,6 4,8 18 10 26 14 NNW 1015,2 20 0,0
17.11.2017 18:00:00 13,7 4,6 18 10 27 15 N 1015,0 - 0,0
17.11.2017 17:00:00 14,1 6,4 17 9 36 19 N 1014,6 - 0,0
17.11.2017 16:00:00 16,6 8,3 23 12 39 21 N 1014,3 - 0,0
17.11.2017 15:00:00 18,4 8,6 25 14 37 20 NNE 1014,2 - 0,0
17.11.2017 14:00:00 18,7 8,9 29 15 42 23 NNE 1014,6 - 0,0
17.11.2017 13:00:00 18,9 9,7 31 17 43 23 NNE 1015,1 20 0,0
17.11.2017 12:00:00 18,0 9,3 32 17 45 24 NNE 1015,6 - 0,0
17.11.2017 11:00:00 17,3 9,0 29 16 42 23 NNE 1016,1 - 0,0
17.11.2017 10:00:00 16,7 8,4 26 14 38 21 N 1016,2 - 0,0
17.11.2017 09:00:00 14,6 8,5 9 5 18 10 N 1016,3 - 0,0
17.11.2017 08:00:00 12,0 7,1 14 8 20 11 N 1016,1 - 0,0
17.11.2017 07:00:00 11,6 6,7 16 9 23 12 N 1015,7 30 0,0
17.11.2017 06:00:00 11,7 6,8 16 9 29 16 N 1015,4 - 0,0
17.11.2017 05:00:00 12,0 6,7 21 12 29 15 N 1015,0 - 0,0
17.11.2017 04:00:00 11,7 6,2 18 10 29 16 N 1015,3 - 0,0
17.11.2017 03:00:00 11,9 5,3 15 8 23 13 NNW 1015,6 - 0,0
17.11.2017 02:00:00 12,3 5,0 16 9 30 16 N 1015,8 - 0,0
17.11.2017 01:00:00 12,8 4,2 18 10 29 16 N 1015,9 - 0,0
17.11.2017 00:00:00 12,5 3,7 18 10 28 15 N 1016,1 - 0,0
16.11.2017 23:00:00 12,6 3,8 18 10 39 21 N 1016,1 - 0,0
16.11.2017 22:00:00 11,9 4,1 19 10 29 16 N 1016,3 - 0,0
16.11.2017 21:00:00 12,7 4,4 20 11 31 17 N 1015,9 - 0,0
16.11.2017 20:00:00 12,4 4,4 21 11 30 16 N 1015,6 - 0,0
16.11.2017 19:00:00 13,4 5,8 18 10 24 13 N 1015,6 - 0,0
16.11.2017 18:00:00 13,4 8,2 19 10 24 13 N 1015,5 - 0,0
16.11.2017 17:00:00 14,1 8,5 18 10 36 20 N 1015,4 - 0,0
16.11.2017 16:00:00 15,9 9,1 23 13 43 23 NNE 1015,3 - 0,0
16.11.2017 15:00:00 17,3 9,0 29 16 45 24 NNE 1015,2 - 0,0
16.11.2017 14:00:00 17,6 8,7 34 18 49 26 NNE 1015,3 - 0,0
16.11.2017 13:00:00 18,0 5,9 20 11 49 27 N 1015,9 20 0,0
16.11.2017 12:00:00 17,5 8,4 35 19 56 30 N 1017,0 - 0,0
16.11.2017 11:00:00 17,0 7,6 34 19 52 28 NNE 1017,3 - 0,0
16.11.2017 10:00:00 15,0 6,5 32 17 46 25 N 1017,1 - 0,0
16.11.2017 09:00:00 14,2 7,3 23 12 39 21 N 1017,3 - 0,0
16.11.2017 08:00:00 12,0 6,3 22 12 36 19 N 1017,1 - 0,0
16.11.2017 07:00:00 11,5 6,0 20 11 38 21 N 1017,0 20 0,0
16.11.2017 06:00:00 11,7 6,4 25 13 38 21 N 1016,6 - 0,0
16.11.2017 05:00:00 11,2 5,9 21 12 42 23 N 1016,6 - 0,0
16.11.2017 04:00:00 11,5 6,0 23 12 42 23 NNW 1016,5 15 0,0
16.11.2017 03:00:00 12,0 6,3 23 12 37 20 N 1016,7 - 0,0
16.11.2017 02:00:00 12,0 6,5 20 11 43 23 N 1016,9 - 0,0
16.11.2017 01:00:00 12,1 6,8 24 13 44 24 N 1016,9 - 0,0
16.11.2017 00:00:00 11,6 6,9 22 12 44 24 N 1017,1 - 0,0
15.11.2017 23:00:00 11,5 7,8 25 13 46 25 N 1017,4 - 0,0
15.11.2017 22:00:00 11,5 8,5 28 15 44 24 N 1017,1 - 0,0
15.11.2017 21:00:00 11,4 8,4 24 13 37 20 N 1016,6 - 0,2
15.11.2017 20:00:00 11,9 8,2 20 11 35 19 N 1016,4 - 0,0
15.11.2017 19:00:00 12,3 8,0 21 12 37 20 N 1016,3 - 0,2
15.11.2017 18:00:00 13,2 6,8 24 13 39 21 N 1016,1 - 0,0
15.11.2017 17:00:00 13,4 6,7 25 13 43 23 N 1015,4 - 0,0
15.11.2017 16:00:00 13,5 6,6 23 12 47 25 N 1015,1 20 0,0
15.11.2017 15:00:00 13,9 6,7 29 16 51 27 N 1014,7 - 0,0
15.11.2017 14:00:00 14,7 7,0 28 15 58 31 N 1014,5 - 0,0
15.11.2017 13:00:00 14,9 7,0 28 15 56 30 N 1014,5 20 0,0
15.11.2017 12:00:00 13,8 6,6 32 18 56 30 N 1014,8 - 0,0
15.11.2017 11:00:00 13,4 6,9 27 14 59 32 N 1015,3 - 0,0
15.11.2017 10:00:00 12,9 5,8 29 16 57 31 N 1015,2 15 0,0
15.11.2017 09:00:00 12,6 5,3 32 18 67 36 N 1014,1 - 0,0
15.11.2017 08:00:00 12,4 4,4 29 15 55 30 N 1013,7 - 0,0
15.11.2017 07:00:00 12,0 3,7 27 15 50 27 N 1013,1 15 0,0
15.11.2017 06:00:00 11,3 4,3 26 14 52 28 N 1012,7 - 0,0
15.11.2017 05:00:00 12,0 2,7 24 13 75 41 N 1012,3 - 0,0
15.11.2017 04:00:00 12,5 3,7 51 28 82 45 NNE 1012,3 15 0,0
15.11.2017 03:00:00 12,4 3,9 50 27 88 47 NNE 1012,3 - 0,0
15.11.2017 02:00:00 12,2 2,9 48 26 85 46 N 1012,3 - 0,0
15.11.2017 01:00:00 11,9 3,9 46 25 73 39 N 1012,6 - 0,0
15.11.2017 00:00:00 12,7 3,6 52 28 78 42 NNE 1013,0 - 0,0
14.11.2017 23:00:00 12,8 2,0 41 22 74 40 N 1013,6 - 0,0
14.11.2017 22:00:00 12,0 3,2 27 15 71 39 N 1012,9 - 0,0
14.11.2017 21:00:00 12,8 2,3 44 24 76 41 N 1012,8 - 0,0
14.11.2017 20:00:00 12,4 4,1 49 26 72 39 NNE 1012,9 - 0,0
14.11.2017 19:00:00 12,5 3,7 42 23 72 39 NNE 1013,0 10 0,0
14.11.2017 18:00:00 12,3 4,0 46 25 69 38 NNE 1012,7 - 0,0
14.11.2017 17:00:00 12,2 4,7 36 19 69 38 N 1012,1 - 0,0
14.11.2017 16:00:00 12,4 3,6 47 25 71 38 NNE 1011,9 15 0,0
14.11.2017 15:00:00 12,2 4,4 42 23 75 41 N 1011,8 - 0,0
14.11.2017 14:00:00 11,9 4,4 50 27 80 43 NNE 1011,6 - 0,0
14.11.2017 13:00:00 12,1 4,3 53 29 83 45 NNE 1011,3 15 0,0
14.11.2017 12:00:00 11,5 4,9 54 29 82 44 NNE 1010,7 - 0,0

tt = Température de l'air
td = dewpoint
ff = Vitesse du vent
fx = gusts
dd = Direction du vent
ppp = reduced air pressure
vv = visibility
rr = Quantités de précipitations

stations d'obs. à proximité